Showing default

RISAT-2BR2, 46905

Orbit data source: Space-Track

RISAT-2BR2, 46905 is a payload satellite owned by ISRO (IN) in LEO that was launched on Sat, 07 Nov 2020 UTC via a PSLV-DL launch vehicle from the Sirharikota (SRI). Payload-class satellites include a variety of spacecraft equipped with specific instruments for various scientific and technological missions. These include communications satellites like Starlink; space stations such as the ISS; scientific satellites like the Hubble; Earth observation satellites from companies like Planet Labs, Umbra, and HawkEye 360; GPS; miniature CubeSats for education and research; and military/defense satellites.

Loading next visibility...
Identifier
46905, 2020-081A
Orbit
LEO
Last TLE update
20 hours ago
Origin
Manufacturer
ISRO
Mission
Operational Civil Radar Imaging
Bus & Motor
TECHSAR, Unknown motor
Mass
628 kg wet, 628 kg dry
Launch date (UTC)
2020-11-07 (5 years ago)
Launch vehicle
PSLV-DL
Launch site
Sirharikota (SRI)
Object type
Payload
Rocket body
Debris
Shape & HBR
Hex Cyl + 2 Pan + 1 Dish, Unknown HBR
Radar Cross Section
2.910 m², Large (>1 m²)

Expand to show TLE details & history

TLE from 20 hours ago
0 RISAT-2BR2
1 46905U 20081A   25185.89420093  .00002555  00000-0  20046-3 0  9993
2 46905  36.8979 125.4897 0012116 204.0802 155.9374 15.01312009255256
Epoch: 2025-07-04T21:27Z
TLE epoch observation values (Epoch: 2025-07-04T21:27:38.96Z)
Latitude
0.00002°
Longitude
-119.56266°
Altitude
569.645 km
Speed
7.574 km/s
True Right ascension
08h 21m 57s
True Declination
0° 00' 00"
Sunlit
Object was in daylight at epoch
Visualization orbit readout
Latitude
-14.2624°
Longitude
75.15387°
Altitude
556.535 km
Speed
7.589 km/s
Apparent Right ascension
19h 43m 48s
Apparent Declination
-29° 33' 09"
Sunlit
Object is in full shadow
Visualization observer readout
Local Sidereal Time
05:26:33
Azimuth
279.58° WNW
Elevation
-60.179°
Doppler factor
1
Orbital elements
Apogee altitude
574.182 km
Perigee altitude
557.356 km
Semi-major axis
6,943.906 km
Eccentricity
0.00121
Inclination
36.8979°
RAAN
125.4897°
Arg. of periapsis
204.0802°
True anomaly
Unknown
Mean anomaly
155.9374°
Eccentric anomaly
Unknown
Mean motion
3.75092 °/min
Orbital period
95.98 mins
BSTAR
0.00020046
Loading maneuver chart data...
Loading SW <> Apogee altitude chart data...
Loading historical data...
Loading historical data...
Loading historical data...
Loading historical data...
Loading historical data...
Loading historical data...
Loading historical data...

RISAT-2BR2 Visibility forecast

Observer location: undefined°, undefined°

Span
Click to sort rows by Start time (UTC) header in descending order
Start Az.
Max El. time (UTC)
Max El. Az.
Max El.
End time (UTC)
End Az.
5 mins2025-07-05 23:13:10.968Z200.097° SSW2025-07-05 23:16:10.968Z147.575° SSE20.681°2025-07-05 23:18:10.968Z113.588° SE
6 mins2025-07-06 00:54:10.968Z235.821° WSW2025-07-06 00:56:10.968Z191.391° SSW36.305°2025-07-06 01:00:10.968Z97.584° ESE
6 mins2025-07-06 02:35:10.968Z254.997° W2025-07-06 02:37:10.968Z210.836° SW37.756°2025-07-06 02:41:10.968Z111.703° ESE
5 mins2025-07-06 04:16:10.968Z247.326° WSW2025-07-06 04:18:10.968Z208.897° SW24.247°2025-07-06 04:21:10.968Z151.456° SSE
|